TimeCET,TemperatureF,Dew PointF,Humidity,Sea Level PressureIn,VisibilityMPH,Wind Direction,Wind SpeedMPH,Gust SpeedMPH,PrecipitationIn,Events,Conditions,WindDirDegrees,DateUTC
7:16 AM,55.4,53.6,94,29.74,5.0,South,11.5,-,N/A,,Mostly Cloudy,180,2013-03-08 06:16:00
7:50 AM,57.2,53.6,88,29.71,5.0,SSE,6.9,-,N/A,,Scattered Clouds,160,2013-03-08 06:50:00
8:50 AM,59.0,55.4,88,29.74,6.2,Variable,2.3,-,N/A,,Scattered Clouds,0,2013-03-08 07:50:00
9:50 AM,60.8,53.6,77,29.71,6.2,South,8.1,-,N/A,,Scattered Clouds,190,2013-03-08 08:50:00
10:50 AM,59.0,53.6,82,29.74,6.2,SSW,4.6,-,N/A,,Scattered Clouds,200,2013-03-08 09:50:00
11:00 AM,59.0,53.6,82,29.71,3.7,South,5.8,-,N/A,Rain,Rain,170,2013-03-08 10:00:00
11:31 AM,59.0,55.4,88,29.71,3.7,SE,4.6,-,N/A,Rain,Light Rain,130,2013-03-08 10:31:00
11:50 AM,59.0,55.4,88,29.71,3.7,Variable,3.5,-,N/A,Rain,Light Rain,0,2013-03-08 10:50:00
12:15 PM,59.0,55.4,88,29.71,1.9,Variable,3.5,-,N/A,Rain,Light Rain,0,2013-03-08 11:15:00
12:50 PM,59.0,55.4,88,29.68,2.2,ESE,8.1,-,N/A,Rain,Light Rain,110,2013-03-08 11:50:00
1:15 PM,59.0,55.4,88,29.65,6.2,Variable,2.3,-,N/A,,Scattered Clouds,0,2013-03-08 12:15:00
1:50 PM,59.0,55.4,88,29.65,6.2,SE,11.5,-,N/A,,Scattered Clouds,140,2013-03-08 12:50:00
2:50 PM,59.0,55.4,88,29.65,6.2,Variable,2.3,-,N/A,,Partly Cloudy,0,2013-03-08 13:50:00
3:50 PM,59.0,53.6,82,29.65,6.2,SE,4.6,-,N/A,,Scattered Clouds,130,2013-03-08 14:50:00
4:50 PM,59.0,55.4,88,29.65,6.2,Calm,Calm,-,N/A,,Scattered Clouds,0,2013-03-08 15:50:00
5:50 PM,59.0,53.6,82,29.65,6.2,SSW,5.8,-,N/A,,Scattered Clouds,210,2013-03-08 16:50:00
6:50 PM,57.2,55.4,94,29.65,6.2,South,10.4,-,N/A,,Scattered Clouds,180,2013-03-08 17:50:00
7:10 PM,57.2,55.4,94,29.68,2.8,South,10.4,-,N/A,Rain,Rain Showers,180,2013-03-08 18:10:00
7:30 PM,57.2,55.4,94,29.68,6.2,Variable,3.5,-,N/A,,Scattered Clouds,0,2013-03-08 18:30:00
7:50 PM,57.2,55.4,94,29.68,6.2,Variable,3.5,-,N/A,,Scattered Clouds,0,2013-03-08 18:50:00
8:50 PM,57.2,55.4,94,29.68,6.2,South,8.1,-,N/A,,Scattered Clouds,190,2013-03-08 19:50:00
9:50 PM,55.4,51.8,88,29.68,6.2,SSW,5.8,-,N/A,,Scattered Clouds,200,2013-03-08 20:50:00